TimeEST,TemperatureF,Dew PointF,Humidity,Sea Level PressureIn,VisibilityMPH,Wind Direction,Wind SpeedMPH,Gust SpeedMPH,PrecipitationIn,Events,Conditions,WindDirDegrees,DateUTC
12:55 AM,39.2,39.2,100,30.15,10.0,Calm,Calm,-,N/A,,Light Drizzle,0,2013-01-15 05:55:00
1:15 AM,39.2,39.2,100,30.15,10.0,Calm,Calm,-,N/A,,Light Drizzle,0,2013-01-15 06:15:00
1:35 AM,39.2,39.2,100,30.15,8.0,Calm,Calm,-,N/A,Rain,Light Rain,0,2013-01-15 06:35:00
1:55 AM,39.2,39.2,100,30.14,8.0,Calm,Calm,-,N/A,Rain,Light Rain,0,2013-01-15 06:55:00
2:15 AM,39.2,39.2,100,30.12,5.0,Calm,Calm,-,N/A,Rain,Light Rain,0,2013-01-15 07:15:00
2:35 AM,39.2,39.2,100,30.11,4.0,ENE,4.6,-,N/A,Rain,Rain,70,2013-01-15 07:35:00
2:55 AM,41.0,41.0,100,30.09,9.0,East,8.1,-,N/A,Rain,Light Rain,80,2013-01-15 07:55:00
3:15 AM,42.8,41.0,93,30.08,10.0,East,6.9,-,N/A,Rain,Light Rain,80,2013-01-15 08:15:00
3:35 AM,42.8,42.8,100,30.09,7.0,Variable,4.6,-,N/A,Rain,Light Rain,0,2013-01-15 08:35:00
3:55 AM,42.8,42.8,100,30.08,6.0,North,3.5,-,N/A,Rain,Heavy Rain,360,2013-01-15 08:55:00
4:55 AM,42.8,42.8,100,30.06,4.0,SW,3.5,-,N/A,Rain,Light Rain,220,2013-01-15 09:55:00
5:15 AM,42.8,41.0,93,30.06,4.0,SW,5.8,-,N/A,Rain,Light Rain,230,2013-01-15 10:15:00
5:35 AM,42.8,41.0,93,30.08,3.0,SSW,6.9,-,N/A,Rain,Heavy Rain,200,2013-01-15 10:35:00
5:55 AM,42.8,42.8,100,30.09,3.0,Calm,Calm,-,N/A,Rain,Heavy Rain,0,2013-01-15 10:55:00
6:15 AM,42.8,42.8,100,30.10,8.0,Calm,Calm,-,N/A,Rain,Heavy Rain,0,2013-01-15 11:15:00
6:35 AM,42.8,41.0,93,30.11,7.0,Calm,Calm,-,N/A,Rain,Heavy Rain,0,2013-01-15 11:35:00
7:15 AM,41.0,41.0,100,30.11,3.0,Calm,Calm,-,N/A,Rain,Heavy Rain,0,2013-01-15 12:15:00
7:35 AM,42.8,42.8,100,30.12,5.0,Calm,Calm,-,N/A,Rain,Rain,0,2013-01-15 12:35:00
7:55 AM,42.8,42.8,100,30.13,3.0,Calm,Calm,-,N/A,Rain,Rain,0,2013-01-15 12:55:00
8:15 AM,42.8,42.8,100,30.15,4.0,WSW,5.8,-,N/A,Rain,Heavy Rain,240,2013-01-15 13:15:00
8:35 AM,42.8,42.8,100,30.16,1.0,WSW,4.6,-,N/A,Rain,Heavy Rain,250,2013-01-15 13:35:00
8:55 AM,42.8,42.8,100,30.16,10.0,WSW,5.8,-,N/A,Rain,Rain,240,2013-01-15 13:55:00
9:15 AM,42.8,42.8,100,30.16,9.0,SW,6.9,-,N/A,Rain,Rain,230,2013-01-15 14:15:00
9:35 AM,42.8,42.8,100,30.16,10.0,Calm,Calm,-,N/A,Rain,Rain,0,2013-01-15 14:35:00
9:55 AM,42.8,42.8,100,30.15,4.0,Calm,Calm,-,N/A,Rain,Rain,0,2013-01-15 14:55:00
10:15 AM,42.8,42.8,100,30.14,4.0,Calm,Calm,-,N/A,Rain,Rain,0,2013-01-15 15:15:00
10:35 AM,42.8,42.8,100,30.15,8.0,WNW,4.6,-,N/A,Rain,Light Rain,290,2013-01-15 15:35:00
10:55 AM,42.8,42.8,100,30.15,6.0,SW,9.2,-,N/A,Rain,Heavy Rain,220,2013-01-15 15:55:00
11:15 AM,42.8,42.8,100,30.15,4.0,SW,4.6,-,N/A,Rain,Light Rain,220,2013-01-15 16:15:00
11:35 AM,42.8,42.8,100,30.14,4.0,WSW,4.6,-,N/A,,Light Drizzle,240,2013-01-15 16:35:00
11:55 AM,42.8,42.8,100,30.12,4.0,Calm,Calm,-,N/A,Rain,Light Rain,0,2013-01-15 16:55:00
12:15 PM,42.8,41.0,93,30.11,7.0,Calm,Calm,-,N/A,,Light Drizzle,0,2013-01-15 17:15:00
12:35 PM,42.8,42.8,100,30.11,6.0,Calm,Calm,-,N/A,Rain,Light Rain,0,2013-01-15 17:35:00
1:15 PM,42.8,42.8,100,30.08,9.0,Calm,Calm,-,N/A,Rain,Light Rain,0,2013-01-15 18:15:00
1:35 PM,42.8,42.8,100,30.07,4.0,Calm,Calm,-,N/A,Rain,Light Rain,0,2013-01-15 18:35:00
1:55 PM,42.8,42.8,100,30.04,5.0,Calm,Calm,-,N/A,Rain,Light Rain,0,2013-01-15 18:55:00
2:15 PM,42.8,42.8,100,30.04,8.0,Calm,Calm,-,N/A,,Drizzle,0,2013-01-15 19:15:00
2:35 PM,42.8,42.8,100,30.03,7.0,Calm,Calm,-,N/A,Rain,Light Rain,0,2013-01-15 19:35:00
2:55 PM,44.6,44.6,100,30.03,8.0,Calm,Calm,-,N/A,Rain,Rain,0,2013-01-15 19:55:00
3:15 PM,44.6,44.6,100,30.01,6.0,Variable,3.5,-,N/A,Rain,Rain,0,2013-01-15 20:15:00
3:35 PM,44.6,44.6,100,30.02,8.0,Calm,Calm,-,N/A,Rain,Heavy Rain,0,2013-01-15 20:35:00
3:55 PM,46.4,46.4,100,30.02,5.0,Calm,Calm,-,N/A,Rain,Rain,0,2013-01-15 20:55:00
4:35 PM,44.6,44.6,100,30.01,5.0,Calm,Calm,-,N/A,Rain,Heavy Rain,0,2013-01-15 21:35:00
4:55 PM,46.4,46.4,100,30.00,7.0,Calm,Calm,-,N/A,Rain,Light Rain,0,2013-01-15 21:55:00
5:15 PM,48.2,48.2,100,30.00,10.0,Calm,Calm,-,N/A,,Light Drizzle,0,2013-01-15 22:15:00
5:55 PM,48.2,48.2,100,30.04,3.0,Calm,Calm,-,N/A,Rain,Heavy Rain,0,2013-01-15 22:55:00
6:15 PM,48.2,48.2,100,30.02,10.0,East,4.6,-,N/A,Rain,Heavy Rain,80,2013-01-15 23:15:00
6:35 PM,48.2,48.2,100,30.03,9.0,Calm,Calm,-,N/A,Rain,Heavy Rain,0,2013-01-15 23:35:00
6:55 PM,48.2,48.2,100,30.03,6.0,ENE,4.6,-,N/A,Rain,Rain,70,2013-01-15 23:55:00
7:15 PM,48.2,48.2,100,30.01,7.0,East,5.8,-,N/A,Rain,Light Rain,80,2013-01-16 00:15:00
7:35 PM,48.2,48.2,100,30.01,7.0,East,3.5,-,N/A,Rain,Rain,90,2013-01-16 00:35:00
7:55 PM,48.2,48.2,100,29.99,7.0,ENE,4.6,-,N/A,Rain,Light Rain,70,2013-01-16 00:55:00
8:15 PM,48.2,48.2,100,29.98,4.0,ENE,4.6,-,N/A,Rain,Rain,70,2013-01-16 01:15:00
8:35 PM,48.2,48.2,100,29.97,7.0,East,5.8,-,N/A,Rain,Light Rain,90,2013-01-16 01:35:00
8:55 PM,48.2,48.2,100,29.96,6.0,ENE,4.6,-,N/A,Rain,Light Rain,70,2013-01-16 01:55:00
9:15 PM,48.2,48.2,100,29.96,10.0,ENE,3.5,-,N/A,,Drizzle,60,2013-01-16 02:15:00
9:35 PM,48.2,48.2,100,29.95,9.0,ENE,4.6,-,N/A,Rain,Light Rain,70,2013-01-16 02:35:00
9:55 PM,50.0,48.2,94,29.95,10.0,ENE,3.5,-,N/A,,Overcast,60,2013-01-16 02:55:00
10:15 PM,50.0,50.0,100,29.96,10.0,East,4.6,-,N/A,,Light Drizzle,90,2013-01-16 03:15:00
10:35 PM,50.0,50.0,100,29.96,10.0,ENE,3.5,-,N/A,,Overcast,70,2013-01-16 03:35:00
10:55 PM,50.0,50.0,100,29.97,6.0,Calm,Calm,-,N/A,Rain,Light Rain,0,2013-01-16 03:55:00
11:15 PM,51.8,50.0,94,29.96,10.0,ENE,3.5,-,N/A,,Overcast,70,2013-01-16 04:15:00
11:35 PM,51.8,50.0,94,29.96,10.0,ENE,3.5,-,N/A,,Overcast,70,2013-01-16 04:35:00
11:55 PM,51.8,51.8,100,29.97,5.0,Calm,Calm,-,N/A,Rain,Light Rain,0,2013-01-16 04:55:00